Time,TemperatureF,DewpointF,PressureIn,WindDirection,WindDirectionDegrees,WindSpeedMPH,WindSpeedGustMPH,Humidity,HourlyPrecipIn,Conditions,Clouds,dailyrainin,SoftwareType,DateUTC
2013-04-22 00:01:00,40.5,38.4,30.47,East,94,0.0,0.0,92,0.00,,,0.00,Wunderground v.1.15,2013-04-22 04:01:00,
2013-04-22 00:03:00,40.4,38.3,30.47,East,94,0.0,0.0,92,0.00,,,0.00,Wunderground v.1.15,2013-04-22 04:03:00,
2013-04-22 00:04:00,40.3,38.2,30.47,East,94,0.0,0.0,92,0.00,,,0.00,Wunderground v.1.15,2013-04-22 04:04:00,
2013-04-22 00:07:00,40.4,38.5,30.47,East,94,0.0,0.0,93,0.00,,,0.00,Wunderground v.1.15,2013-04-22 04:07:00,
2013-04-22 00:11:00,40.5,38.9,30.47,East,94,0.0,0.0,94,0.00,,,0.00,Wunderground v.1.15,2013-04-22 04:11:00,
2013-04-22 00:17:00,40.7,38.8,30.48,East,94,0.0,0.0,93,0.00,,,0.00,Wunderground v.1.15,2013-04-22 04:17:00,
2013-04-22 00:22:00,40.6,38.7,30.47,East,94,0.0,0.0,93,0.00,,,0.00,Wunderground v.1.15,2013-04-22 04:22:00,
2013-04-22 00:28:00,40.4,38.5,30.48,East,94,0.0,0.0,93,0.00,,,0.00,Wunderground v.1.15,2013-04-22 04:28:00,
2013-04-22 00:34:00,40.2,38.3,30.47,East,94,0.0,0.0,93,0.00,,,0.00,Wunderground v.1.15,2013-04-22 04:34:00,
2013-04-22 00:40:00,39.9,38.0,30.48,East,94,0.0,0.0,93,0.00,,,0.00,Wunderground v.1.15,2013-04-22 04:40:00,
2013-04-22 00:46:00,39.8,37.9,30.47,East,94,0.0,0.0,93,0.00,,,0.00,Wunderground v.1.15,2013-04-22 04:46:00,
2013-04-22 00:52:00,39.6,37.7,30.48,East,93,0.0,0.0,93,0.00,,,0.00,Wunderground v.1.15,2013-04-22 04:52:00,
2013-04-22 00:58:00,39.7,38.1,30.48,East,94,0.0,0.0,94,0.00,,,0.00,Wunderground v.1.15,2013-04-22 04:58:00,
2013-04-22 01:04:00,40.0,38.4,30.48,East,93,0.0,0.0,94,0.00,,,0.00,Wunderground v.1.15,2013-04-22 05:04:00,
2013-04-22 01:10:00,40.1,38.5,30.48,East,94,0.0,0.0,94,0.00,,,0.00,Wunderground v.1.15,2013-04-22 05:10:00,
2013-04-22 01:16:00,40.0,38.4,30.48,East,94,0.0,0.0,94,0.00,,,0.00,Wunderground v.1.15,2013-04-22 05:16:00,
2013-04-22 01:22:00,39.9,38.3,30.48,East,94,0.0,0.0,94,0.00,,,0.00,Wunderground v.1.15,2013-04-22 05:22:00,
2013-04-22 01:28:00,39.8,38.5,30.48,East,94,0.0,0.0,95,0.00,,,0.00,Wunderground v.1.15,2013-04-22 05:28:00,
2013-04-22 01:34:00,39.8,38.5,30.48,East,94,0.0,0.0,95,0.00,,,0.00,Wunderground v.1.15,2013-04-22 05:34:00,
2013-04-22 01:40:00,39.6,38.3,30.48,East,94,0.0,0.0,95,0.00,,,0.00,Wunderground v.1.15,2013-04-22 05:40:00,
2013-04-22 01:46:00,39.5,38.2,30.47,East,94,0.0,0.0,95,0.00,,,0.00,Wunderground v.1.15,2013-04-22 05:46:00,
2013-04-22 01:52:00,39.5,38.2,30.47,East,94,0.0,0.0,95,0.00,,,0.00,Wunderground v.1.15,2013-04-22 05:52:00,
2013-04-22 01:57:00,39.5,38.5,30.47,East,93,0.0,0.0,96,0.00,,,0.00,Wunderground v.1.15,2013-04-22 05:57:00,
2013-04-22 02:02:00,39.6,38.6,30.47,East,94,0.0,0.0,96,0.00,,,0.00,Wunderground v.1.15,2013-04-22 06:02:00,
2013-04-22 02:07:00,39.5,38.2,30.47,East,94,0.0,0.0,95,0.00,,,0.00,Wunderground v.1.15,2013-04-22 06:07:00,
2013-04-22 02:12:00,39.5,38.2,30.47,East,94,0.0,0.0,95,0.00,,,0.00,Wunderground v.1.15,2013-04-22 06:12:00,
2013-04-22 02:18:00,39.4,38.1,30.47,East,94,0.0,0.0,95,0.00,,,0.00,Wunderground v.1.15,2013-04-22 06:18:00,
2013-04-22 02:23:00,39.4,38.1,30.46,East,94,0.0,0.0,95,0.00,,,0.00,Wunderground v.1.15,2013-04-22 06:23:00,
2013-04-22 02:28:00,39.2,37.6,30.46,East,94,0.0,0.0,94,0.00,,,0.00,Wunderground v.1.15,2013-04-22 06:28:00,
2013-04-22 02:33:00,38.9,37.3,30.46,East,94,0.0,0.0,94,0.00,,,0.00,Wunderground v.1.15,2013-04-22 06:33:00,
2013-04-22 02:38:00,39.1,37.8,30.46,North,356,0.0,1.0,95,0.00,,,0.00,Wunderground v.1.15,2013-04-22 06:38:00,
2013-04-22 02:43:00,39.3,37.7,30.46,South,169,0.0,2.0,94,0.00,,,0.00,Wunderground v.1.15,2013-04-22 06:43:00,
2013-04-22 02:48:00,39.4,37.5,30.46,ESE,118,0.0,2.0,93,0.00,,,0.00,Wunderground v.1.15,2013-04-22 06:48:00,
2013-04-22 02:53:00,39.5,37.4,30.46,ESE,118,0.0,0.0,92,0.00,,,0.00,Wunderground v.1.15,2013-04-22 06:53:00,
2013-04-22 02:58:00,39.4,37.3,30.46,ESE,118,0.0,1.0,92,0.00,,,0.00,Wunderground v.1.15,2013-04-22 06:58:00,
2013-04-22 03:03:00,39.3,37.2,30.46,ESE,119,0.0,0.0,92,0.00,,,0.00,Wunderground v.1.15,2013-04-22 07:03:00,
2013-04-22 03:08:00,39.2,37.1,30.46,ESE,118,0.0,0.0,92,0.00,,,0.00,Wunderground v.1.15,2013-04-22 07:08:00,
2013-04-22 03:13:00,39.1,37.2,30.46,ESE,118,0.0,1.0,93,0.00,,,0.00,Wunderground v.1.15,2013-04-22 07:13:00,
2013-04-22 03:18:00,39.1,37.0,30.45,ESE,119,1.0,1.0,92,0.00,,,0.00,Wunderground v.1.15,2013-04-22 07:18:00,
2013-04-22 03:23:00,39.3,36.9,30.45,SE,134,0.0,4.0,91,0.00,,,0.00,Wunderground v.1.15,2013-04-22 07:23:00,
2013-04-22 03:28:00,39.6,36.9,30.45,SE,134,0.0,4.0,90,0.00,,,0.00,Wunderground v.1.15,2013-04-22 07:28:00,
2013-04-22 03:33:00,39.6,36.9,30.45,SE,134,0.0,0.0,90,0.00,,,0.00,Wunderground v.1.15,2013-04-22 07:33:00,
2013-04-22 03:38:00,39.3,36.6,30.45,SE,134,0.0,0.0,90,0.00,,,0.00,Wunderground v.1.15,2013-04-22 07:38:00,
2013-04-22 03:43:00,39.0,36.3,30.45,SE,134,0.0,0.0,90,0.00,,,0.00,Wunderground v.1.15,2013-04-22 07:43:00,
2013-04-22 03:48:00,38.8,36.4,30.45,SE,134,0.0,0.0,91,0.00,,,0.00,Wunderground v.1.15,2013-04-22 07:48:00,
2013-04-22 03:54:00,38.6,36.5,30.45,WSW,249,0.0,0.0,92,0.00,,,0.00,Wunderground v.1.15,2013-04-22 07:54:00,
2013-04-22 03:59:00,38.6,36.5,30.45,North,354,0.0,1.0,92,0.00,,,0.00,Wunderground v.1.15,2013-04-22 07:59:00,
2013-04-22 04:04:00,38.7,36.3,30.45,NNW,334,0.0,0.0,91,0.00,,,0.00,Wunderground v.1.15,2013-04-22 08:04:00,
2013-04-22 04:09:00,38.8,36.4,30.45,NNE,23,0.0,1.0,91,0.00,,,0.00,Wunderground v.1.15,2013-04-22 08:09:00,
2013-04-22 04:14:00,39.0,36.3,30.45,ENE,76,0.0,1.0,90,0.00,,,0.00,Wunderground v.1.15,2013-04-22 08:14:00,
2013-04-22 04:19:00,38.9,35.9,30.45,North,355,0.0,1.0,89,0.00,,,0.00,Wunderground v.1.15,2013-04-22 08:19:00,
2013-04-22 04:24:00,38.9,35.6,30.45,WNW,295,0.0,2.0,88,0.00,,,0.00,Wunderground v.1.15,2013-04-22 08:24:00,
2013-04-22 04:29:00,38.9,35.6,30.45,WNW,287,0.0,2.0,88,0.00,,,0.00,Wunderground v.1.15,2013-04-22 08:29:00,
2013-04-22 04:34:00,38.7,35.5,30.45,WNW,287,1.0,1.0,88,0.00,,,0.00,Wunderground v.1.15,2013-04-22 08:34:00,
2013-04-22 04:39:00,38.7,35.5,30.45,West,273,0.0,3.0,88,0.00,,,0.00,Wunderground v.1.15,2013-04-22 08:39:00,
2013-04-22 04:44:00,38.5,35.3,30.45,West,281,0.0,1.0,88,0.00,,,0.00,Wunderground v.1.15,2013-04-22 08:44:00,
2013-04-22 04:49:00,38.4,35.4,30.45,ENE,77,1.0,1.0,89,0.00,,,0.00,Wunderground v.1.15,2013-04-22 08:49:00,
2013-04-22 04:54:00,38.4,35.4,30.45,NE,44,0.0,2.0,89,0.00,,,0.00,Wunderground v.1.15,2013-04-22 08:54:00,
2013-04-22 04:59:00,38.3,35.3,30.45,NE,44,0.0,0.0,89,0.00,,,0.00,Wunderground v.1.15,2013-04-22 08:59:00,
2013-04-22 05:04:00,38.2,35.2,30.45,West,266,0.0,2.0,89,0.00,,,0.00,Wunderground v.1.15,2013-04-22 09:04:00,
2013-04-22 05:09:00,38.1,35.4,30.45,West,265,0.0,0.0,90,0.00,,,0.00,Wunderground v.1.15,2013-04-22 09:09:00,
2013-04-22 05:14:00,38.0,35.3,30.45,WNW,288,1.0,1.0,90,0.00,,,0.00,Wunderground v.1.15,2013-04-22 09:14:00,
2013-04-22 05:19:00,37.9,35.2,30.45,NNW,332,0.0,0.0,90,0.00,,,0.00,Wunderground v.1.15,2013-04-22 09:19:00,
2013-04-22 05:24:00,37.8,35.4,30.45,North,4,0.0,1.0,91,0.00,,,0.00,Wunderground v.1.15,2013-04-22 09:24:00,
2013-04-22 05:29:00,37.6,35.2,30.45,SSE,148,0.0,0.0,91,0.00,,,0.00,Wunderground v.1.15,2013-04-22 09:29:00,
2013-04-22 05:34:00,37.6,35.5,30.45,West,267,1.0,2.0,92,0.00,,,0.00,Wunderground v.1.15,2013-04-22 09:34:00,
2013-04-22 05:39:00,37.6,35.5,30.45,East,83,0.0,1.0,92,0.00,,,0.00,Wunderground v.1.15,2013-04-22 09:39:00,
2013-04-22 05:44:00,37.7,35.6,30.46,ESE,115,1.0,4.0,92,0.00,,,0.00,Wunderground v.1.15,2013-04-22 09:44:00,
2013-04-22 05:49:00,37.7,35.6,30.46,WNW,300,1.0,2.0,92,0.00,,,0.00,Wunderground v.1.15,2013-04-22 09:49:00,
2013-04-22 05:54:00,37.6,35.5,30.46,NW,312,0.0,2.0,92,0.00,,,0.00,Wunderground v.1.15,2013-04-22 09:54:00,
2013-04-22 05:59:00,37.4,35.3,30.47,WNW,300,1.0,1.0,92,0.00,,,0.00,Wunderground v.1.15,2013-04-22 09:59:00,
2013-04-22 06:04:00,37.3,35.2,30.47,South,188,0.0,1.0,92,0.00,,,0.00,Wunderground v.1.15,2013-04-22 10:04:00,
2013-04-22 06:09:00,37.3,35.2,30.47,NNE,18,1.0,1.0,92,0.00,,,0.00,Wunderground v.1.15,2013-04-22 10:09:00,
2013-04-22 06:14:00,37.4,35.3,30.47,NW,309,0.0,3.0,92,0.00,,,0.00,Wunderground v.1.15,2013-04-22 10:14:00,
2013-04-22 06:19:00,37.3,35.2,30.47,ENE,57,2.0,2.0,92,0.00,,,0.00,Wunderground v.1.15,2013-04-22 10:19:00,
2013-04-22 06:24:00,37.4,35.3,30.47,ENE,70,1.0,6.0,92,0.00,,,0.00,Wunderground v.1.15,2013-04-22 10:24:00,
2013-04-22 06:29:00,37.6,35.5,30.47,ENE,59,1.0,2.0,92,0.00,,,0.00,Wunderground v.1.15,2013-04-22 10:29:00,
2013-04-22 06:34:00,37.6,35.5,30.47,ENE,63,1.0,3.0,92,0.00,,,0.00,Wunderground v.1.15,2013-04-22 10:34:00,
2013-04-22 06:39:00,37.6,35.5,30.48,East,86,0.0,1.0,92,0.00,,,0.00,Wunderground v.1.15,2013-04-22 10:39:00,
2013-04-22 06:44:00,37.5,35.1,30.48,NNE,30,0.0,1.0,91,0.00,,,0.00,Wunderground v.1.15,2013-04-22 10:44:00,
2013-04-22 06:49:00,37.4,35.0,30.48,ENE,70,0.0,1.0,91,0.00,,,0.00,Wunderground v.1.15,2013-04-22 10:49:00,
2013-04-22 06:54:00,37.2,34.8,30.48,WNW,300,0.0,3.0,91,0.00,,,0.00,Wunderground v.1.15,2013-04-22 10:54:00,
2013-04-22 07:00:00,37.1,35.0,30.49,ENE,65,1.0,3.0,92,0.00,,,0.00,Wunderground v.1.15,2013-04-22 11:00:00,
2013-04-22 07:05:00,37.1,35.0,30.49,NNW,334,0.0,3.0,92,0.00,,,0.00,Wunderground v.1.15,2013-04-22 11:05:00,
2013-04-22 07:10:00,37.1,35.0,30.49,North,353,0.0,0.0,92,0.00,,,0.00,Wunderground v.1.15,2013-04-22 11:10:00,
2013-04-22 07:15:00,37.0,34.9,30.49,East,99,0.0,1.0,92,0.00,,,0.00,Wunderground v.1.15,2013-04-22 11:15:00,
2013-04-22 07:20:00,37.0,34.9,30.49,East,98,0.0,0.0,92,0.00,,,0.00,Wunderground v.1.15,2013-04-22 11:20:00,
2013-04-22 07:25:00,37.2,35.1,30.49,WSW,253,1.0,3.0,92,0.00,,,0.00,Wunderground v.1.15,2013-04-22 11:25:00,
2013-04-22 07:30:00,37.4,35.3,30.49,West,260,0.0,2.0,92,0.00,,,0.00,Wunderground v.1.15,2013-04-22 11:30:00,
2013-04-22 07:35:00,37.7,35.3,30.49,ENE,58,2.0,2.0,91,0.00,,,0.00,Wunderground v.1.15,2013-04-22 11:35:00,
2013-04-22 07:40:00,38.0,35.6,30.49,East,79,0.0,2.0,91,0.00,,,0.00,Wunderground v.1.15,2013-04-22 11:40:00,
2013-04-22 07:45:00,38.5,35.8,30.49,East,101,1.0,5.0,90,0.00,,,0.00,Wunderground v.1.15,2013-04-22 11:45:00,
2013-04-22 07:50:00,39.2,36.2,30.48,WSW,253,1.0,4.0,89,0.00,,,0.00,Wunderground v.1.15,2013-04-22 11:50:00,
2013-04-22 07:55:00,39.9,36.6,30.48,ENE,74,1.0,4.0,88,0.00,,,0.00,Wunderground v.1.15,2013-04-22 11:55:00,
2013-04-22 08:00:00,40.4,36.5,30.48,NNE,20,0.0,1.0,86,0.00,,,0.00,Wunderground v.1.15,2013-04-22 12:00:00,
2013-04-22 08:05:00,40.8,36.9,30.48,ESE,102,1.0,3.0,86,0.00,,,0.00,Wunderground v.1.15,2013-04-22 12:05:00,
2013-04-22 08:10:00,41.2,36.7,30.48,West,278,0.0,3.0,84,0.00,,,0.00,Wunderground v.1.15,2013-04-22 12:10:00,
2013-04-22 08:15:00,41.8,37.0,30.49,ENE,65,1.0,4.0,83,0.00,,,0.00,Wunderground v.1.15,2013-04-22 12:15:00,
2013-04-22 08:20:00,41.9,36.5,30.49,ESE,112,2.0,4.0,81,0.00,,,0.00,Wunderground v.1.15,2013-04-22 12:20:00,
2013-04-22 08:25:00,42.4,37.0,30.48,East,94,1.0,4.0,81,0.00,,,0.00,Wunderground v.1.15,2013-04-22 12:25:00,
2013-04-22 08:30:00,42.6,36.9,30.48,NNE,27,0.0,5.0,80,0.00,,,0.00,Wunderground v.1.15,2013-04-22 12:30:00,
2013-04-22 08:35:00,43.0,37.3,30.48,ENE,78,4.0,5.0,80,0.00,,,0.00,Wunderground v.1.15,2013-04-22 12:35:00,
2013-04-22 08:40:00,43.6,37.8,30.48,SE,135,1.0,2.0,80,0.00,,,0.00,Wunderground v.1.15,2013-04-22 12:40:00,
2013-04-22 08:45:00,43.9,37.2,30.49,ENE,59,0.0,5.0,77,0.00,,,0.00,Wunderground v.1.15,2013-04-22 12:45:00,
2013-04-22 08:50:00,44.4,37.6,30.48,East,84,1.0,3.0,77,0.00,,,0.00,Wunderground v.1.15,2013-04-22 12:50:00,
2013-04-22 08:55:00,44.8,37.0,30.49,SE,129,1.0,3.0,74,0.00,,,0.00,Wunderground v.1.15,2013-04-22 12:55:00,
2013-04-22 09:00:00,45.2,37.4,30.49,NNE,33,1.0,3.0,74,0.00,,,0.00,Wunderground v.1.15,2013-04-22 13:00:00,
2013-04-22 09:05:00,45.3,37.5,30.49,ENE,64,3.0,8.0,74,0.00,,,0.00,Wunderground v.1.15,2013-04-22 13:05:00,
2013-04-22 09:10:00,45.4,36.9,30.49,East,84,1.0,2.0,72,0.00,,,0.00,Wunderground v.1.15,2013-04-22 13:10:00,
2013-04-22 09:15:00,45.8,36.2,30.48,NW,311,2.0,5.0,69,0.00,,,0.00,Wunderground v.1.15,2013-04-22 13:15:00,
2013-04-22 09:20:00,45.6,36.0,30.48,North,355,1.0,7.0,69,0.00,,,0.00,Wunderground v.1.15,2013-04-22 13:20:00,
2013-04-22 09:26:00,46.0,36.4,30.48,ESE,121,1.0,7.0,69,0.00,,,0.00,Wunderground v.1.15,2013-04-22 13:26:00,
2013-04-22 09:31:00,46.4,36.8,30.48,North,4,0.0,4.0,69,0.00,,,0.00,Wunderground v.1.15,2013-04-22 13:31:00,
2013-04-22 09:36:00,47.1,35.9,30.48,ESE,122,3.0,7.0,65,0.00,,,0.00,Wunderground v.1.15,2013-04-22 13:36:00,
2013-04-22 09:41:00,47.0,35.4,30.48,ESE,118,2.0,5.0,64,0.00,,,0.00,Wunderground v.1.15,2013-04-22 13:41:00,
2013-04-22 09:46:00,47.3,35.3,30.48,East,85,2.0,6.0,63,0.00,,,0.00,Wunderground v.1.15,2013-04-22 13:46:00,
2013-04-22 09:51:00,47.0,34.6,30.48,NE,42,2.0,8.0,62,0.00,,,0.00,Wunderground v.1.15,2013-04-22 13:51:00,
2013-04-22 09:56:00,47.1,34.7,30.48,ESE,116,6.0,8.0,62,0.00,,,0.00,Wunderground v.1.15,2013-04-22 13:56:00,
2013-04-22 10:01:00,47.8,35.4,30.48,NNE,22,1.0,4.0,62,0.00,,,0.00,Wunderground v.1.15,2013-04-22 14:01:00,
2013-04-22 10:06:00,48.8,35.9,30.47,North,8,2.0,4.0,61,0.00,,,0.00,Wunderground v.1.15,2013-04-22 14:06:00,
2013-04-22 10:11:00,49.1,34.9,30.47,ENE,78,4.0,8.0,58,0.00,,,0.00,Wunderground v.1.15,2013-04-22 14:11:00,
2013-04-22 10:16:00,49.3,36.0,30.47,ENE,65,3.0,8.0,60,0.00,,,0.00,Wunderground v.1.15,2013-04-22 14:16:00,
2013-04-22 10:21:00,49.8,35.6,30.46,NE,37,3.0,5.0,58,0.00,,,0.00,Wunderground v.1.15,2013-04-22 14:21:00,
2013-04-22 10:26:00,50.0,34.9,30.46,ESE,115,5.0,5.0,56,0.00,,,0.00,Wunderground v.1.15,2013-04-22 14:26:00,
2013-04-22 10:31:00,50.2,32.3,30.46,ENE,64,4.0,7.0,50,0.00,,,0.00,Wunderground v.1.15,2013-04-22 14:31:00,
2013-04-22 10:36:00,50.0,33.1,30.46,East,93,2.0,7.0,52,0.00,,,0.00,Wunderground v.1.15,2013-04-22 14:36:00,
2013-04-22 10:41:00,50.6,33.6,30.45,SW,228,4.0,6.0,52,0.00,,,0.00,Wunderground v.1.15,2013-04-22 14:41:00,
2013-04-22 10:46:00,50.4,32.4,30.45,North,8,3.0,9.0,50,0.00,,,0.00,Wunderground v.1.15,2013-04-22 14:46:00,
2013-04-22 10:51:00,50.9,32.9,30.45,West,259,1.0,4.0,50,0.00,,,0.00,Wunderground v.1.15,2013-04-22 14:51:00,
2013-04-22 10:56:00,51.6,34.0,30.45,SSW,212,1.0,8.0,51,0.00,,,0.00,Wunderground v.1.15,2013-04-22 14:56:00,
2013-04-22 11:01:00,51.8,34.7,30.45,SE,126,3.0,6.0,52,0.00,,,0.00,Wunderground v.1.15,2013-04-22 15:01:00,
2013-04-22 11:06:00,51.9,31.2,30.44,East,91,2.0,6.0,45,0.00,,,0.00,Wunderground v.1.15,2013-04-22 15:06:00,
2013-04-22 11:12:00,52.1,33.5,30.44,East,91,4.0,6.0,49,0.00,,,0.00,Wunderground v.1.15,2013-04-22 15:12:00,
2013-04-22 11:17:00,52.0,31.8,30.44,ENE,70,5.0,8.0,46,0.00,,,0.00,Wunderground v.1.15,2013-04-22 15:17:00,
2013-04-22 11:22:00,52.3,31.0,30.44,NW,316,2.0,7.0,44,0.00,,,0.00,Wunderground v.1.15,2013-04-22 15:22:00,
2013-04-22 11:27:00,52.7,31.9,30.44,ENE,65,3.0,7.0,45,0.00,,,0.00,Wunderground v.1.15,2013-04-22 15:27:00,
2013-04-22 11:32:00,52.8,33.1,30.43,ESE,112,2.0,6.0,47,0.00,,,0.00,Wunderground v.1.15,2013-04-22 15:32:00,
2013-04-22 11:37:00,52.9,32.1,30.43,NE,43,3.0,7.0,45,0.00,,,0.00,Wunderground v.1.15,2013-04-22 15:37:00,
2013-04-22 11:42:00,53.3,30.8,30.43,East,87,3.0,5.0,42,0.00,,,0.00,Wunderground v.1.15,2013-04-22 15:42:00,
2013-04-22 11:47:00,53.3,30.8,30.43,NE,37,1.0,11.0,42,0.00,,,0.00,Wunderground v.1.15,2013-04-22 15:47:00,
2013-04-22 11:52:00,53.5,31.5,30.42,SSE,158,1.0,9.0,43,0.00,,,0.00,Wunderground v.1.15,2013-04-22 15:52:00,
2013-04-22 11:57:00,54.2,32.7,30.42,ESE,102,4.0,9.0,44,0.00,,,0.00,Wunderground v.1.15,2013-04-22 15:57:00,
2013-04-22 12:02:00,54.8,32.7,30.42,ENE,72,1.0,4.0,43,0.00,,,0.00,Wunderground v.1.15,2013-04-22 16:02:00,
2013-04-22 12:07:00,55.4,30.2,30.42,East,95,5.0,5.0,38,0.00,,,0.00,Wunderground v.1.15,2013-04-22 16:07:00,
2013-04-22 12:12:00,55.3,32.0,30.41,East,94,2.0,5.0,41,0.00,,,0.00,Wunderground v.1.15,2013-04-22 16:12:00,
2013-04-22 12:17:00,55.6,29.7,30.41,WSW,245,2.0,5.0,37,0.00,,,0.00,Wunderground v.1.15,2013-04-22 16:17:00,
2013-04-22 12:22:00,55.8,29.9,30.41,East,85,5.0,7.0,37,0.00,,,0.00,Wunderground v.1.15,2013-04-22 16:22:00,
2013-04-22 12:27:00,56.1,31.5,30.40,West,262,3.0,7.0,39,0.00,,,0.00,Wunderground v.1.15,2013-04-22 16:27:00,
2013-04-22 12:32:00,56.9,32.8,30.40,ENE,77,3.0,4.0,40,0.00,,,0.00,Wunderground v.1.15,2013-04-22 16:32:00,
2013-04-22 12:37:00,56.7,27.9,30.40,ENE,77,2.0,6.0,33,0.00,,,0.00,Wunderground v.1.15,2013-04-22 16:37:00,
2013-04-22 12:42:00,56.6,31.3,30.39,East,84,5.0,8.0,38,0.00,,,0.00,Wunderground v.1.15,2013-04-22 16:42:00,
2013-04-22 12:47:00,56.8,29.4,30.39,NNE,15,2.0,8.0,35,0.00,,,0.00,Wunderground v.1.15,2013-04-22 16:47:00,
2013-04-22 12:52:00,57.1,28.2,30.38,WNW,294,2.0,8.0,33,0.00,,,0.00,Wunderground v.1.15,2013-04-22 16:52:00,
2013-04-22 12:57:00,57.4,29.9,30.38,NE,43,2.0,8.0,35,0.00,,,0.00,Wunderground v.1.15,2013-04-22 16:57:00,
2013-04-22 13:02:00,57.7,30.2,30.38,ENE,74,2.0,6.0,35,0.00,,,0.00,Wunderground v.1.15,2013-04-22 17:02:00,
2013-04-22 13:07:00,58.0,28.3,30.38,East,83,1.0,2.0,32,0.00,,,0.00,Wunderground v.1.15,2013-04-22 17:07:00,
2013-04-22 13:12:00,58.4,31.5,30.38,SE,145,3.0,4.0,36,0.00,,,0.00,Wunderground v.1.15,2013-04-22 17:12:00,
2013-04-22 13:17:00,58.6,30.3,30.37,NE,41,4.0,5.0,34,0.00,,,0.00,Wunderground v.1.15,2013-04-22 17:17:00,
2013-04-22 13:22:00,58.9,29.8,30.37,South,180,3.0,7.0,33,0.00,,,0.00,Wunderground v.1.15,2013-04-22 17:22:00,
2013-04-22 13:27:00,59.1,30.0,30.36,West,269,2.0,3.0,33,0.00,,,0.00,Wunderground v.1.15,2013-04-22 17:27:00,
2013-04-22 13:32:00,58.9,29.8,30.36,East,85,6.0,9.0,33,0.00,,,0.00,Wunderground v.1.15,2013-04-22 17:32:00,
2013-04-22 13:37:00,59.2,28.5,30.35,East,101,2.0,3.0,31,0.00,,,0.00,Wunderground v.1.15,2013-04-22 17:37:00,
2013-04-22 13:42:00,59.5,31.1,30.36,East,84,2.0,4.0,34,0.00,,,0.00,Wunderground v.1.15,2013-04-22 17:42:00,
2013-04-22 13:47:00,59.5,29.6,30.35,SSE,148,3.0,4.0,32,0.00,,,0.00,Wunderground v.1.15,2013-04-22 17:47:00,
2013-04-22 13:53:00,59.6,28.9,30.35,NE,46,4.0,6.0,31,0.00,,,0.00,Wunderground v.1.15,2013-04-22 17:53:00,
2013-04-22 13:58:00,59.3,28.6,30.35,NE,51,2.0,7.0,31,0.00,,,0.00,Wunderground v.1.15,2013-04-22 17:58:00,
2013-04-22 14:03:00,59.7,33.4,30.35,WSW,250,1.0,7.0,37,0.00,,,0.00,Wunderground v.1.15,2013-04-22 18:03:00,
2013-04-22 14:07:00,59.7,32.0,30.35,ESE,112,2.0,5.0,35,0.00,,,0.00,Wunderground v.1.15,2013-04-22 18:07:00,
2013-04-22 14:12:00,60.4,32.6,30.35,East,91,2.0,8.0,35,0.00,,,0.00,Wunderground v.1.15,2013-04-22 18:12:00,
2013-04-22 14:18:00,60.5,31.2,30.34,North,355,0.0,3.0,33,0.00,,,0.00,Wunderground v.1.15,2013-04-22 18:18:00,
2013-04-22 14:22:00,60.7,31.4,30.34,East,85,2.0,5.0,33,0.00,,,0.00,Wunderground v.1.15,2013-04-22 18:22:00,
2013-04-22 14:27:00,60.8,29.1,30.34,WNW,285,3.0,6.0,30,0.00,,,0.00,Wunderground v.1.15,2013-04-22 18:27:00,
2013-04-22 14:32:00,60.9,32.3,30.34,West,263,5.0,6.0,34,0.00,,,0.00,Wunderground v.1.15,2013-04-22 18:32:00,
2013-04-22 14:37:00,60.7,28.2,30.34,NNW,340,1.0,8.0,29,0.00,,,0.00,Wunderground v.1.15,2013-04-22 18:37:00,
2013-04-22 14:42:00,60.8,29.9,30.33,NW,307,3.0,8.0,31,0.00,,,0.00,Wunderground v.1.15,2013-04-22 18:42:00,
2013-04-22 14:47:00,61.1,31.8,30.33,ENE,61,5.0,5.0,33,0.00,,,0.00,Wunderground v.1.15,2013-04-22 18:47:00,
2013-04-22 14:53:00,61.9,30.9,30.33,ENE,64,2.0,5.0,31,0.00,,,0.00,Wunderground v.1.15,2013-04-22 18:53:00,
2013-04-22 14:58:00,62.0,31.8,30.33,NE,39,1.0,5.0,32,0.00,,,0.00,Wunderground v.1.15,2013-04-22 18:58:00,
2013-04-22 15:03:00,61.6,30.6,30.33,East,88,2.0,5.0,31,0.00,,,0.00,Wunderground v.1.15,2013-04-22 19:03:00,
2013-04-22 15:08:00,61.8,30.8,30.32,ENE,61,4.0,6.0,31,0.00,,,0.00,Wunderground v.1.15,2013-04-22 19:08:00,
2013-04-22 15:13:00,61.6,32.9,30.33,ENE,60,4.0,9.0,34,0.00,,,0.00,Wunderground v.1.15,2013-04-22 19:13:00,
2013-04-22 15:18:00,61.7,29.9,30.32,North,11,1.0,4.0,30,0.00,,,0.00,Wunderground v.1.15,2013-04-22 19:18:00,
2013-04-22 15:23:00,62.2,32.0,30.32,SSE,148,3.0,5.0,32,0.00,,,0.00,Wunderground v.1.15,2013-04-22 19:23:00,
2013-04-22 15:28:00,62.4,32.1,30.32,ENE,64,1.0,3.0,32,0.00,,,0.00,Wunderground v.1.15,2013-04-22 19:28:00,
2013-04-22 15:33:00,62.8,32.5,30.32,SE,134,1.0,6.0,32,0.00,,,0.00,Wunderground v.1.15,2013-04-22 19:33:00,
2013-04-22 15:38:00,62.9,34.8,30.31,ESE,108,2.0,5.0,35,0.00,,,0.00,Wunderground v.1.15,2013-04-22 19:38:00,
2013-04-22 15:43:00,63.0,34.2,30.31,NNE,24,1.0,5.0,34,0.00,,,0.00,Wunderground v.1.15,2013-04-22 19:43:00,
2013-04-22 15:48:00,63.0,31.9,30.31,WSW,253,0.0,4.0,31,0.00,,,0.00,Wunderground v.1.15,2013-04-22 19:48:00,
2013-04-22 15:53:00,63.2,35.8,30.31,East,98,3.0,5.0,36,0.00,,,0.00,Wunderground v.1.15,2013-04-22 19:53:00,
2013-04-22 15:58:00,62.4,30.5,30.31,East,84,3.0,9.0,30,0.00,,,0.00,Wunderground v.1.15,2013-04-22 19:58:00,
2013-04-22 16:03:00,62.5,32.2,30.30,WNW,285,1.0,9.0,32,0.00,,,0.00,Wunderground v.1.15,2013-04-22 20:03:00,
2013-04-22 16:08:00,62.6,30.7,30.30,East,79,3.0,4.0,30,0.00,,,0.00,Wunderground v.1.15,2013-04-22 20:08:00,
2013-04-22 16:13:00,62.5,30.6,30.30,ENE,74,5.0,5.0,30,0.00,,,0.00,Wunderground v.1.15,2013-04-22 20:13:00,
2013-04-22 16:18:00,62.4,33.6,30.29,South,179,2.0,5.0,34,0.00,,,0.00,Wunderground v.1.15,2013-04-22 20:18:00,
2013-04-22 16:23:00,62.2,29.5,30.29,East,82,3.0,6.0,29,0.00,,,0.00,Wunderground v.1.15,2013-04-22 20:23:00,
2013-04-22 16:28:00,62.5,33.0,30.29,ESE,105,1.0,3.0,33,0.00,,,0.00,Wunderground v.1.15,2013-04-22 20:28:00,
2013-04-22 16:33:00,62.8,30.9,30.29,East,84,3.0,6.0,30,0.00,,,0.00,Wunderground v.1.15,2013-04-22 20:33:00,
2013-04-22 16:38:00,63.0,30.2,30.28,ENE,72,0.0,3.0,29,0.00,,,0.00,Wunderground v.1.15,2013-04-22 20:38:00,
2013-04-22 16:43:00,63.0,28.5,30.28,SE,142,3.0,7.0,27,0.00,,,0.00,Wunderground v.1.15,2013-04-22 20:43:00,
2013-04-22 16:48:00,62.5,31.4,30.28,SE,127,1.0,2.0,31,0.00,,,0.00,Wunderground v.1.15,2013-04-22 20:48:00,
2013-04-22 16:53:00,62.7,30.8,30.28,ENE,70,0.0,5.0,30,0.00,,,0.00,Wunderground v.1.15,2013-04-22 20:53:00,
2013-04-22 16:58:00,63.0,31.0,30.28,East,86,1.0,4.0,30,0.00,,,0.00,Wunderground v.1.15,2013-04-22 20:58:00,
2013-04-22 17:03:00,63.2,31.2,30.28,NE,53,2.0,4.0,30,0.00,,,0.00,Wunderground v.1.15,2013-04-22 21:03:00,
2013-04-22 17:08:00,63.4,29.7,30.28,SW,222,0.0,3.0,28,0.00,,,0.00,Wunderground v.1.15,2013-04-22 21:08:00,
2013-04-22 17:13:00,63.5,32.3,30.28,ENE,58,1.0,4.0,31,0.00,,,0.00,Wunderground v.1.15,2013-04-22 21:13:00,
2013-04-22 17:18:00,63.4,33.0,30.28,SE,132,3.0,5.0,32,0.00,,,0.00,Wunderground v.1.15,2013-04-22 21:18:00,
2013-04-22 17:23:00,63.0,33.4,30.28,SE,146,1.0,8.0,33,0.00,,,0.00,Wunderground v.1.15,2013-04-22 21:23:00,
2013-04-22 17:28:00,62.8,32.5,30.28,SE,141,2.0,5.0,32,0.00,,,0.00,Wunderground v.1.15,2013-04-22 21:28:00,
2013-04-22 17:33:00,62.5,30.6,30.27,SE,133,1.0,7.0,30,0.00,,,0.00,Wunderground v.1.15,2013-04-22 21:33:00,
2013-04-22 17:38:00,62.6,31.5,30.28,East,94,0.0,2.0,31,0.00,,,0.00,Wunderground v.1.15,2013-04-22 21:38:00,
2013-04-22 17:43:00,62.8,32.5,30.27,SE,141,2.0,4.0,32,0.00,,,0.00,Wunderground v.1.15,2013-04-22 21:43:00,
2013-04-22 17:48:00,62.5,31.4,30.28,SE,139,0.0,2.0,31,0.00,,,0.00,Wunderground v.1.15,2013-04-22 21:48:00,
2013-04-22 17:53:00,62.6,30.7,30.28,SE,134,3.0,5.0,30,0.00,,,0.00,Wunderground v.1.15,2013-04-22 21:53:00,
2013-04-22 17:59:00,62.3,31.3,30.27,ENE,65,0.0,3.0,31,0.00,,,0.00,Wunderground v.1.15,2013-04-22 21:59:00,
2013-04-22 18:04:00,62.5,32.2,30.27,ESE,104,1.0,3.0,32,0.00,,,0.00,Wunderground v.1.15,2013-04-22 22:04:00,
2013-04-22 18:09:00,62.6,32.3,30.27,ENE,63,0.0,3.0,32,0.00,,,0.00,Wunderground v.1.15,2013-04-22 22:09:00,
2013-04-22 18:14:00,62.4,30.5,30.27,ENE,72,2.0,3.0,30,0.00,,,0.00,Wunderground v.1.15,2013-04-22 22:14:00,
2013-04-22 18:19:00,62.5,31.4,30.27,SE,136,1.0,5.0,31,0.00,,,0.00,Wunderground v.1.15,2013-04-22 22:19:00,
2013-04-22 18:24:00,62.6,32.3,30.27,ESE,122,1.0,5.0,32,0.00,,,0.00,Wunderground v.1.15,2013-04-22 22:24:00,
2013-04-22 18:29:00,62.6,31.5,30.27,East,94,2.0,5.0,31,0.00,,,0.00,Wunderground v.1.15,2013-04-22 22:29:00,
2013-04-22 18:34:00,62.0,32.5,30.27,East,82,2.0,5.0,33,0.00,,,0.00,Wunderground v.1.15,2013-04-22 22:34:00,
2013-04-22 18:39:00,61.6,32.9,30.27,WSW,249,1.0,2.0,34,0.00,,,0.00,Wunderground v.1.15,2013-04-22 22:39:00,
2013-04-22 18:44:00,61.6,32.9,30.27,SE,136,1.0,2.0,34,0.00,,,0.00,Wunderground v.1.15,2013-04-22 22:44:00,
2013-04-22 18:49:00,61.4,33.5,30.27,ESE,122,0.0,2.0,35,0.00,,,0.00,Wunderground v.1.15,2013-04-22 22:49:00,
2013-04-22 18:54:00,61.5,34.3,30.27,ESE,110,1.0,2.0,36,0.00,,,0.00,Wunderground v.1.15,2013-04-22 22:54:00,
2013-04-22 18:59:00,61.1,34.6,30.27,East,94,1.0,4.0,37,0.00,,,0.00,Wunderground v.1.15,2013-04-22 22:59:00,
2013-04-22 19:04:00,61.0,34.5,30.27,East,94,1.0,4.0,37,0.00,,,0.00,Wunderground v.1.15,2013-04-22 23:04:00,
2013-04-22 19:09:00,60.9,33.7,30.27,East,81,2.0,3.0,36,0.00,,,0.00,Wunderground v.1.15,2013-04-22 23:09:00,
2013-04-22 19:14:00,60.7,35.6,30.27,SE,131,0.0,5.0,39,0.00,,,0.00,Wunderground v.1.15,2013-04-22 23:14:00,
2013-04-22 19:19:00,60.0,34.3,30.27,East,96,1.0,3.0,38,0.00,,,0.00,Wunderground v.1.15,2013-04-22 23:19:00,
2013-04-22 19:24:00,59.3,34.3,30.27,NNE,14,1.0,6.0,39,0.00,,,0.00,Wunderground v.1.15,2013-04-22 23:24:00,
2013-04-22 19:29:00,58.9,34.6,30.27,ENE,60,0.0,1.0,40,0.00,,,0.00,Wunderground v.1.15,2013-04-22 23:29:00,
2013-04-22 19:34:00,58.6,36.2,30.27,ENE,60,0.0,1.0,43,0.00,,,0.00,Wunderground v.1.15,2013-04-22 23:34:00,
2013-04-22 19:39:00,58.3,35.9,30.27,ENE,60,0.0,0.0,43,0.00,,,0.00,Wunderground v.1.15,2013-04-22 23:39:00,
2013-04-22 19:44:00,58.1,37.4,30.27,ENE,60,0.0,1.0,46,0.00,,,0.00,Wunderground v.1.15,2013-04-22 23:44:00,
2013-04-22 19:49:00,57.9,36.1,30.27,NE,51,1.0,2.0,44,0.00,,,0.00,Wunderground v.1.15,2013-04-22 23:49:00,
2013-04-22 19:54:00,57.7,35.3,30.28,NNE,33,0.0,2.0,43,0.00,,,0.00,Wunderground v.1.15,2013-04-22 23:54:00,
2013-04-22 19:59:00,57.7,35.9,30.28,ENE,67,0.0,2.0,44,0.00,,,0.00,Wunderground v.1.15,2013-04-22 23:59:00,
2013-04-22 20:04:00,57.6,35.2,30.28,ENE,65,0.0,2.0,43,0.00,,,0.00,Wunderground v.1.15,2013-04-23 00:04:00,
2013-04-22 20:09:00,57.6,36.4,30.28,ENE,65,0.0,0.0,45,0.00,,,0.00,Wunderground v.1.15,2013-04-23 00:09:00,
2013-04-22 20:14:00,57.4,37.3,30.28,ENE,76,0.0,0.0,47,0.00,,,0.00,Wunderground v.1.15,2013-04-23 00:14:00,
2013-04-22 20:19:00,57.3,36.1,30.28,ENE,77,0.0,0.0,45,0.00,,,0.00,Wunderground v.1.15,2013-04-23 00:19:00,
2013-04-22 20:24:00,57.0,37.0,30.28,SSE,152,3.0,3.0,47,0.00,,,0.00,Wunderground v.1.15,2013-04-23 00:24:00,
2013-04-22 20:29:00,56.7,36.7,30.28,ESE,119,3.0,5.0,47,0.00,,,0.00,Wunderground v.1.15,2013-04-23 00:29:00,
2013-04-22 20:34:00,56.5,37.6,30.28,ENE,76,1.0,5.0,49,0.00,,,0.00,Wunderground v.1.15,2013-04-23 00:34:00,
2013-04-22 20:39:00,56.4,38.0,30.28,East,84,0.0,1.0,50,0.00,,,0.00,Wunderground v.1.15,2013-04-23 00:39:00,
2013-04-22 20:44:00,56.2,36.8,30.29,East,101,1.0,4.0,48,0.00,,,0.00,Wunderground v.1.15,2013-04-23 00:44:00,
2013-04-22 20:49:00,56.1,38.2,30.29,ESE,102,0.0,1.0,51,0.00,,,0.00,Wunderground v.1.15,2013-04-23 00:49:00,
2013-04-22 20:54:00,55.8,38.4,30.29,ESE,102,0.0,1.0,52,0.00,,,0.00,Wunderground v.1.15,2013-04-23 00:54:00,
2013-04-22 20:59:00,55.4,38.5,30.29,East,89,0.0,2.0,53,0.00,,,0.00,Wunderground v.1.15,2013-04-23 00:59:00,
2013-04-22 21:04:00,55.0,38.6,30.29,East,88,0.0,2.0,54,0.00,,,0.00,Wunderground v.1.15,2013-04-23 01:04:00,
2013-04-22 21:09:00,54.7,38.8,30.29,ENE,77,0.0,4.0,55,0.00,,,0.00,Wunderground v.1.15,2013-04-23 01:09:00,
2013-04-22 21:14:00,54.5,39.1,30.29,SSE,148,0.0,4.0,56,0.00,,,0.00,Wunderground v.1.15,2013-04-23 01:14:00,
2013-04-22 21:19:00,54.3,39.4,30.29,ESE,107,0.0,2.0,57,0.00,,,0.00,Wunderground v.1.15,2013-04-23 01:19:00,
2013-04-22 21:24:00,54.3,38.9,30.29,East,93,1.0,3.0,56,0.00,,,0.00,Wunderground v.1.15,2013-04-23 01:24:00,
2013-04-22 21:29:00,54.5,39.6,30.30,East,84,0.0,1.0,57,0.00,,,0.00,Wunderground v.1.15,2013-04-23 01:29:00,
2013-04-22 21:34:00,54.5,39.6,30.30,East,84,0.0,1.0,57,0.00,,,0.00,Wunderground v.1.15,2013-04-23 01:34:00,
2013-04-22 21:39:00,54.5,40.0,30.30,East,84,0.0,0.0,58,0.00,,,0.00,Wunderground v.1.15,2013-04-23 01:39:00,
2013-04-22 21:44:00,54.5,39.6,30.30,East,86,0.0,2.0,57,0.00,,,0.00,Wunderground v.1.15,2013-04-23 01:44:00,
2013-04-22 21:49:00,54.6,39.7,30.30,East,79,2.0,5.0,57,0.00,,,0.00,Wunderground v.1.15,2013-04-23 01:49:00,
2013-04-22 21:54:00,54.8,40.3,30.30,East,85,1.0,5.0,58,0.00,,,0.00,Wunderground v.1.15,2013-04-23 01:54:00,
2013-04-22 21:59:00,54.9,39.9,30.31,SE,141,3.0,5.0,57,0.00,,,0.00,Wunderground v.1.15,2013-04-23 01:59:00,
2013-04-22 22:04:00,54.9,40.4,30.31,ENE,65,2.0,5.0,58,0.00,,,0.00,Wunderground v.1.15,2013-04-23 02:04:00,
2013-04-22 22:09:00,54.8,40.3,30.30,East,89,0.0,4.0,58,0.00,,,0.00,Wunderground v.1.15,2013-04-23 02:09:00,
2013-04-22 22:14:00,54.8,40.7,30.30,East,79,0.0,5.0,59,0.00,,,0.00,Wunderground v.1.15,2013-04-23 02:14:00,
2013-04-22 22:19:00,54.7,40.6,30.31,SE,136,0.0,3.0,59,0.00,,,0.00,Wunderground v.1.15,2013-04-23 02:19:00,
2013-04-22 22:24:00,54.7,41.1,30.31,East,97,1.0,4.0,60,0.00,,,0.00,Wunderground v.1.15,2013-04-23 02:24:00,
2013-04-22 22:29:00,54.6,40.6,30.31,ESE,110,2.0,5.0,59,0.00,,,0.00,Wunderground v.1.15,2013-04-23 02:29:00,
2013-04-22 22:34:00,54.4,40.8,30.31,ESE,105,1.0,5.0,60,0.00,,,0.00,Wunderground v.1.15,2013-04-23 02:34:00,
2013-04-22 22:39:00,54.2,41.0,30.31,ESE,121,2.0,4.0,61,0.00,,,0.00,Wunderground v.1.15,2013-04-23 02:39:00,
2013-04-22 22:44:00,54.0,40.4,30.31,East,88,1.0,4.0,60,0.00,,,0.00,Wunderground v.1.15,2013-04-23 02:44:00,
2013-04-22 22:49:00,53.9,40.8,30.31,East,96,1.0,5.0,61,0.00,,,0.00,Wunderground v.1.15,2013-04-23 02:49:00,
2013-04-22 22:54:00,53.8,40.7,30.31,East,79,2.0,5.0,61,0.00,,,0.00,Wunderground v.1.15,2013-04-23 02:54:00,
2013-04-22 23:00:00,53.6,40.5,30.31,SE,139,4.0,4.0,61,0.00,,,0.00,Wunderground v.1.15,2013-04-23 03:00:00,
2013-04-22 23:05:00,53.5,40.4,30.31,East,79,2.0,5.0,61,0.00,,,0.00,Wunderground v.1.15,2013-04-23 03:05:00,
2013-04-22 23:10:00,53.5,40.4,30.31,East,84,1.0,4.0,61,0.00,,,0.00,Wunderground v.1.15,2013-04-23 03:10:00,
2013-04-22 23:15:00,53.4,40.7,30.31,ESE,103,0.0,4.0,62,0.00,,,0.00,Wunderground v.1.15,2013-04-23 03:15:00,
2013-04-22 23:20:00,53.3,40.2,30.31,SE,130,1.0,2.0,61,0.00,,,0.00,Wunderground v.1.15,2013-04-23 03:20:00,
2013-04-22 23:25:00,53.3,40.6,30.30,East,82,1.0,2.0,62,0.00,,,0.00,Wunderground v.1.15,2013-04-23 03:25:00,
2013-04-22 23:30:00,53.2,40.5,30.30,SE,127,1.0,4.0,62,0.00,,,0.00,Wunderground v.1.15,2013-04-23 03:30:00,
2013-04-22 23:35:00,53.1,40.4,30.30,ESE,118,0.0,4.0,62,0.00,,,0.00,Wunderground v.1.15,2013-04-23 03:35:00,
2013-04-22 23:40:00,53.0,41.1,30.30,ESE,118,0.0,1.0,64,0.00,,,0.00,Wunderground v.1.15,2013-04-23 03:40:00,
2013-04-22 23:45:00,53.0,41.1,30.30,SSE,158,0.0,2.0,64,0.00,,,0.00,Wunderground v.1.15,2013-04-23 03:45:00,
2013-04-22 23:50:00,52.9,41.0,30.30,NE,37,0.0,1.0,64,0.00,,,0.00,Wunderground v.1.15,2013-04-23 03:50:00,
2013-04-22 23:55:00,52.9,41.4,30.30,East,91,0.0,2.0,65,0.00,,,0.00,Wunderground v.1.15,2013-04-23 03:55:00,